WA3AFS Weather Reports


time (UTC)temp
F
wind
direction
speed
knots
gust
knots
rain 1hr
in
rain 24hr
in
rain mn
in
humidity
%
barometer
mb
20260510164238 59 342 3.5 11.3 0.00 0.04 0.00 60 1012.5
20260510163731 59 305 5.2 8.7 0.00 0.04 0.00 62 1012.6
20260510163302 59 301 1.7 4.3 0.00 0.04 0.00 61 1012.6
20260510162754 59 247 2.6 8.7 0.00 0.04 0.00 61 1012.5
20260510162245 59 308 4.3 8.7 0.00 0.04 0.00 63 1012.7
20260510161737 58 285 5.2 7.8 0.00 0.04 0.00 61 1012.6
20260510161230 58 76 2.6 12.2 0.00 0.06 0.00 61 1012.7
20260510160737 58 311 5.2 12.2 0.00 0.06 0.00 62 1012.8
20260510160230 58 308 4.3 9.6 0.00 0.06 0.00 63 1012.7
20260510155745 57 71 3.5 9.6 0.00 0.06 0.00 64 1012.5
20260510155239 57 285 1.7 7.8 0.00 0.06 0.00 65 1012.6
20260510154733 57 224 2.6 7.8 0.00 0.06 0.00 66 1012.7
20260510154306 57 310 2.6 10.4 0.00 0.06 0.00 68 1012.7
20260510153757 56 283 5.2 9.6 0.00 0.06 0.00 69 1012.7
20260510153228 56 27 2.6 9.6 0.00 0.06 0.00 70 1012.8
20260510152741 56 103 2.6 9.6 0.00 0.06 0.00 73 1012.8
20260510152230 55 97 1.7 7.8 0.00 0.06 0.00 73 1012.7
20260510151742 55 278 3.5 7.8 0.00 0.06 0.00 72 1012.6
20260510151235 56 354 2.6 7.8 0.00 0.14 0.00 75 1012.5
20260510150746 56 354 2.6 7.8 0.00 0.14 0.00 75 1012.4
20260510150240 57 309 3.5 7.8 0.00 0.14 0.00 77 1012.4
20260510145731 58 307 1.7 3.5 0.00 0.14 0.00 84 1012.2
20260510145245 58 32 0.9 1.7 0.00 0.14 0.00 84 1011.8
20260510144736 58 32 0.0 0.9 0.00 0.14 0.00 84 1011.8
20260510144308 58 32 0.0 1.7 0.00 0.14 0.00 84 1011.6
20260510143758 58 32 0.9 1.7 0.00 0.14 0.00 84 1011.7
20260510143230 58 359 0.9 1.7 0.00 0.14 0.00 84 1011.7
20260510142743 58 354 0.0 0.9 0.00 0.14 0.00 84 1011.4
20260510142239 57 354 0.0 0.9 0.00 0.14 0.00 85 1011.4
20260510141731 57 354 0.0 1.7 0.00 0.14 0.00 85 1011.3
20260510141240 57 95 0.9 1.7 0.00 0.20 0.00 86 1011.1
20260510140733 57 12 0.0 2.6 0.00 0.20 0.00 87 1011.3
20260510140245 57 54 0.9 2.6 0.00 0.20 0.00 87 1011.2
20260510135759 57 72 0.9 1.7 0.00 0.20 0.00 86 1011.3
20260510135230 57 158 0.9 1.7 0.00 0.20 0.00 86 1011.3
20260510134741 56 158 0.0 2.6 0.00 0.20 0.00 86 1011.3
20260510134233 56 119 1.7 2.6 0.00 0.20 0.00 86 1011.1
20260510133805 56 108 0.9 2.6 0.00 0.20 0.00 88 1011.1
20260510133259 56 150 0.9 2.6 0.00 0.20 0.00 89 1011.1
20260510132730 55 147 0.9 2.6 0.00 0.20 0.00 88 1011.0
20260510132242 55 128 0.9 2.6 0.00 0.20 0.00 88 1010.9
20260510131734 55 183 0.9 2.6 0.00 0.20 0.00 89 1010.9
20260510131246 55 194 0.9 2.6 0.00 0.23 0.00 89 1010.8
20260510130739 55 166 0.9 4.3 0.00 0.23 0.00 89 1010.8
20260510130231 54 181 1.7 3.5 0.00 0.23 0.00 90 1010.8
20260510125743 54 152 1.7 3.5 0.00 0.23 0.00 90 1010.8
20260510125236 54 174 1.7 2.6 0.00 0.23 0.00 91 1010.8
20260510124729 53 196 0.9 2.6 0.00 0.23 0.00 91 1010.8
20260510124240 53 153 0.9 1.7 0.00 0.23 0.00 91 1010.8
20260510123750 53 138 0.9 1.7 0.00 0.23 0.00 91 1010.7
20260510123240 53 133 0.9 1.7 0.00 0.23 0.00 91 1010.8
20260510122731 53 133 0.9 1.7 0.00 0.23 0.00 91 1010.9
20260510122301 53 162 0.9 2.6 0.00 0.23 0.00 91 1010.8
20260510121733 53 136 0.9 2.6 0.00 0.23 0.00 91 1010.7
20260510121244 53 134 0.9 1.7 0.00 0.27 0.00 92 1010.7
20260510120739 53 168 0.9 2.6 0.00 0.27 0.00 92 1010.7
20260510120230 53 171 0.9 2.6 0.00 0.27 0.00 92 1010.6
20260510115742 52 127 0.9 2.6 0.00 0.27 0.00 93 1010.6
20260510115235 52 97 0.9 2.6 0.00 0.27 0.00 93 1010.6
20260510114807 52 131 0.9 2.6 0.00 0.27 0.00 93 1010.5
20260510114255 52 152 0.9 2.6 0.00 0.27 0.00 93 1010.4
20260510113729 52 165 0.9 2.6 0.00 0.27 0.00 94 1010.5
20260510113303 52 188 0.9 2.6 0.00 0.27 0.00 94 1010.5
20260510112756 51 162 0.9 1.7 0.00 0.27 0.00 94 1010.4
20260510112246 51 162 0.9 1.7 0.00 0.27 0.00 94 1010.2
20260510111738 51 162 0.9 1.7 0.00 0.27 0.00 94 1010.2
20260510111232 51 185 0.0 1.7 0.00 0.28 0.00 94 1010.3
20260510110746 51 185 0.0 1.7 0.00 0.28 0.00 94 1010.2
20260510110240 51 177 0.9 1.7 0.00 0.28 0.00 94 1010.3
20260510105734 51 199 1.7 3.5 0.00 0.28 0.00 94 1010.2
20260510105227 51 203 0.9 3.5 0.00 0.28 0.00 94 1010.2
20260510104742 51 189 1.7 2.6 0.00 0.28 0.00 95 1010.2
20260510104236 51 188 1.7 2.6 0.00 0.28 0.00 94 1010.1
20260510103729 50 193 0.9 2.6 0.00 0.28 0.00 94 1010.1
20260510103241 50 187 0.9 1.7 0.00 0.28 0.00 94 1010.1
20260510102733 50 125 0.9 1.7 0.00 0.28 0.00 94 1009.9
20260510102227 50 110 0.0 0.9 0.00 0.28 0.00 94 1009.8
20260510101738 50 110 0.0 0.9 0.00 0.28 0.00 94 1009.6
20260510101230 50 142 0.0 0.9 0.00 0.29 0.00 94 1009.6
20260510100803 50 142 0.0 1.7 0.00 0.29 0.00 94 1009.4
20260510100232 50 142 0.9 1.7 0.00 0.29 0.00 94 1009.3
20260510095745 50 152 0.9 1.7 0.00 0.29 0.00 94 1009.4
20260510095237 50 156 0.9 1.7 0.00 0.29 0.00 94 1009.2
20260510094729 50 137 0.9 2.6 0.00 0.29 0.00 94 1009.1
20260510094241 50 147 1.7 2.6 0.00 0.29 0.00 94 1009.1
20260510093735 50 154 0.9 1.7 0.00 0.29 0.00 95 1009.1
20260510093228 50 141 0.9 1.7 0.00 0.29 0.00 95 1009.0
20260510092736 50 209 0.9 1.7 0.00 0.29 0.00 95 1009.0
20260510092230 50 184 0.9 1.7 0.00 0.29 0.00 95 1008.9
20260510091741 51 231 0.9 2.6 0.00 0.29 0.00 95 1008.9
20260510091236 51 203 0.9 2.6 0.00 0.31 0.00 95 1008.9
20260510090730 51 137 0.9 1.7 0.00 0.31 0.00 95 1008.8
20260510090241 51 151 0.9 2.6 0.00 0.31 0.00 95 1008.8
20260510085732 50 160 1.7 2.6 0.00 0.31 0.00 95 1008.7
20260510085243 50 193 1.7 2.6 0.00 0.31 0.00 95 1008.7
20260510084737 50 150 0.9 3.5 0.00 0.31 0.00 95 1008.7
20260510084231 50 184 0.9 3.5 0.00 0.31 0.00 95 1008.9
20260510083744 50 181 0.9 2.6 0.00 0.31 0.00 95 1008.9
20260510083236 50 201 1.7 2.6 0.00 0.31 0.00 95 1008.9
20260510082746 50 190 0.9 2.6 0.00 0.31 0.00 95 1008.9
20260510082238 50 162 1.7 2.6 0.00 0.31 0.00 94 1009.0
20260510081731 51 203 1.7 2.6 0.00 0.31 0.00 95 1008.9
20260510081243 51 185 0.9 1.7 0.00 0.31 0.00 95 1008.7
20260510080735 51 141 0.9 1.7 0.00 0.31 0.00 95 1008.7
20260510080246 51 141 0.0 1.7 0.00 0.31 0.00 95 1008.9
20260510075739 51 138 0.0 1.7 0.00 0.31 0.00 95 1009.0
20260510075231 51 160 0.9 1.7 0.00 0.31 0.00 95 1009.1
20260510074742 51 278 0.0 1.7 0.00 0.31 0.00 95 1009.1
20260510074232 51 227 0.9 2.6 0.00 0.31 0.00 95 1008.7
20260510073744 51 258 0.9 2.6 0.00 0.31 0.00 94 1008.9
20260510073235 51 228 0.0 1.7 0.00 0.31 0.00 94 1008.8
20260510072739 51 241 0.9 1.7 0.00 0.31 0.00 94 1008.9
20260510072232 51 188 0.9 1.7 0.00 0.31 0.00 94 1009.2
20260510071804 51 206 0.9 2.6 0.00 0.31 0.00 94 1009.3
20260510071254 51 197 0.9 2.6 0.00 0.31 0.00 94 1009.3
20260510070746 51 200 0.9 2.6 0.00 0.31 0.00 94 1009.3
20260510070238 51 221 0.9 1.7 0.00 0.31 0.00 94 1009.3
20260510065730 51 310 0.0 1.7 0.00 0.31 0.00 94 1009.4
20260510065241 51 84 0.0 1.7 0.00 0.31 0.00 94 1009.5
20260510064733 51 167 0.0 1.7 0.00 0.31 0.00 94 1009.5
20260510064246 51 167 0.9 1.7 0.00 0.31 0.00 94 1009.6
20260510063737 51 166 1.7 2.6 0.00 0.31 0.00 94 1009.7
20260510063231 51 174 0.9 2.6 0.00 0.31 0.00 93 1009.6
20260510062743 51 166 1.7 2.6 0.00 0.31 0.00 93 1009.5
20260510062256 51 166 0.9 2.6 0.00 0.31 0.00 93 1009.5
20260510061743 51 189 0.0 0.9 0.00 0.31 0.00 93 1009.3
20260510061234 52 190 0.0 1.7 0.00 0.31 0.00 93 1009.4
20260510060743 52 189 0.9 1.7 0.00 0.31 0.00 93 1009.5
20260510060235 52 181 0.9 1.7 0.00 0.31 0.00 93 1009.4
20260510055727 52 181 0.9 1.7 0.00 0.31 0.00 93 1009.3
20260510055239 52 185 0.9 1.7 0.00 0.31 0.00 93 1009.2
20260510054729 52 209 0.9 1.7 0.00 0.31 0.00 93 1009.3
20260510054240 52 194 0.9 2.6 0.00 0.31 0.00 93 1009.0
20260510053734 52 178 1.7 2.6 0.00 0.31 0.00 93 1009.1
20260510053246 52 172 0.9 2.6 0.00 0.31 0.00 93 1009.2
20260510052738 52 187 0.9 2.6 0.00 0.31 0.00 93 1009.2
20260510052232 52 176 1.7 2.6 0.00 0.31 0.00 93 1009.1
20260510051745 52 230 1.7 2.6 0.00 0.31 0.00 92 1009.2
20260510051257 52 196 0.9 3.5 0.00 0.31 0.00 92 1009.2
20260510050729 52 232 1.7 4.3 0.00 0.31 0.00 93 1009.0
20260510050240 52 200 1.7 2.6 0.00 0.31 0.00 93 1009.1
20260510045732 52 212 0.9 1.7 0.00 0.31 0.00 93 1009.0
20260510045243 52 191 0.9 1.7 0.00 0.31 0.00 93 1009.0
20260510044736 52 194 0.9 1.7 0.00 0.31 0.00 93 1009.1
20260510044307 52 189 0.9 2.6 0.00 0.31 0.00 93 1009.1
20260510043738 52 131 0.9 2.6 0.00 0.31 0.00 93 1009.2
20260510043229 52 163 1.7 2.6 0.00 0.31 0.00 93 1009.2
20260510042801 52 156 0.9 3.5 0.00 0.31 0.00 93 1009.1
20260510042234 52 193 0.9 3.5 0.00 0.31 0.00 92 1009.1
20260510041801 52 181 0.9 2.6 0.00 0.31 0.00 92 1009.2
20260510041234 52 237 0.9 3.5 0.00 0.31 0.31 92 1009.1
20260510040745 52 150 1.7 3.5 0.00 0.31 0.31 92 1009.1
20260510040237 52 201 0.9 2.6 0.00 0.31 0.31 92 1008.9
20260510035747 52 168 0.9 3.5 0.00 0.31 0.31 92 1009.1
20260510035240 52 152 1.7 3.5 0.00 0.31 0.31 92 1009.0
20260510034732 52 165 1.7 5.2 0.00 0.31 0.31 93 1009.1
20260510034245 52 179 0.9 1.7 0.00 0.31 0.31 93 1009.1
20260510033738 52 221 0.9 4.3 0.00 0.31 0.31 93 1009.1
20260510033229 52 166 1.7 4.3 0.00 0.31 0.31 93 1009.1
20260510032741 52 187 0.9 1.7 0.00 0.31 0.31 93 1009.2
20260510032235 52 168 0.9 2.6 0.00 0.31 0.31 93 1009.1
20260510031747 52 191 0.9 2.6 0.00 0.31 0.31 93 1009.1
20260510031237 52 129 0.9 2.6 0.00 0.31 0.31 94 1009.0
20260510030746 52 179 0.9 2.6 0.00 0.31 0.31 94 1009.1
20260510030236 52 171 0.9 3.5 0.00 0.31 0.31 94 1009.1
20260510025729 52 189 0.9 3.5 0.00 0.31 0.31 94 1009.1
20260510025239 52 133 0.9 2.6 0.00 0.31 0.31 94 1009.1
20260510024729 52 215 0.0 2.6 0.00 0.31 0.31 94 1009.2
20260510024242 52 176 0.0 0.0 0.00 0.31 0.31 94 1009.1
20260510023754 52 191 0.0 0.0 0.00 0.31 0.31 94 1009.1
20260510023307 52 175 0.0 0.0 0.00 0.31 0.31 94 1009.4
20260510022736 52 192 0.0 0.0 0.00 0.31 0.31 94 1009.4
20260510022227 52 192 0.0 0.0 0.00 0.31 0.31 94 1009.4
20260510021734 52 189 0.0 0.0 0.00 0.31 0.31 94 1009.3
20260510021246 52 179 0.0 0.0 0.00 0.31 0.31 94 1009.2
20260510020759 52 188 0.0 0.0 0.00 0.31 0.31 94 1009.2
20260510020232 52 185 0.0 0.0 0.00 0.31 0.31 94 1009.1
20260510015744 52 194 0.0 0.0 0.00 0.31 0.31 94 1009.3
20260510015236 52 193 0.0 0.0 0.00 0.31 0.31 94 1009.1
20260510014730 52 220 0.0 0.0 0.00 0.31 0.31 94 1009.4
20260510014243 52 179 0.0 0.0 0.00 0.31 0.31 94 1009.4
20260510013736 52 201 0.0 0.0 0.00 0.31 0.31 94 1009.3
20260510013229 52 201 0.0 0.0 0.00 0.31 0.31 94 1009.4
20260510012801 52 201 0.0 0.0 0.00 0.31 0.31 94 1009.1
20260510012232 52 201 0.0 0.0 0.00 0.31 0.31 94 1009.2
20260510011744 52 201 0.0 0.0 0.00 0.31 0.31 94 1009.1
20260510011236 52 201 0.0 0.0 0.00 0.31 0.31 94 1009.1
20260510010729 52 193 0.0 0.0 0.00 0.31 0.31 94 1009.1
20260510010241 52 212 0.0 0.0 0.00 0.31 0.31 94 1009.0
20260510005735 52 212 0.0 0.0 0.00 0.31 0.31 94 1009.1
20260510005228 52 193 0.0 0.0 0.00 0.31 0.31 94 1008.9
20260510004742 52 192 0.0 0.0 0.00 0.31 0.31 93 1008.9
20260510004255 52 203 0.0 0.0 0.00 0.31 0.31 93 1009.0
20260510003745 52 203 0.0 0.0 0.00 0.31 0.31 93 1008.9
20260510003255 52 203 0.0 0.0 0.00 0.31 0.31 93 1008.8
20260510002741 52 203 0.0 0.0 0.00 0.31 0.31 93 1008.9
20260510002232 53 203 0.0 0.0 0.00 0.31 0.31 93 1008.9
20260510001807 53 203 0.0 0.0 0.00 0.31 0.31 93 1008.8
20260510001239 53 203 0.0 0.0 0.00 0.31 0.31 92 1008.7
20260510000731 53 203 0.0 0.0 0.00 0.31 0.31 92 1008.5
20260510000241 53 203 0.0 0.0 0.00 0.31 0.31 92 1008.4
20260509235753 53 179 0.0 0.0 0.00 0.31 0.31 92 1008.3
20260509235244 53 179 0.0 0.9 0.00 0.31 0.31 92 1008.3
20260509234736 53 184 0.0 1.7 0.00 0.31 0.31 92 1008.2
20260509234229 53 184 0.0 1.7 0.00 0.31 0.31 92 1008.1
20260509233741 53 191 0.9 1.7 0.00 0.31 0.31 91 1008.1
20260509233233 53 157 0.9 1.7 0.00 0.31 0.31 91 1008.1
20260509232803 53 157 0.9 1.7 0.00 0.31 0.31 91 1008.0
20260509232234 53 196 0.0 1.7 0.00 0.31 0.31 91 1007.9
20260509231806 53 196 0.0 1.7 0.00 0.31 0.31 91 1007.7
20260509231237 53 196 0.0 1.7 0.00 0.31 0.31 91 1007.8
20260509230730 54 196 0.0 1.7 0.00 0.31 0.31 91 1007.7
20260509230241 54 189 0.9 2.6 0.00 0.31 0.31 91 1007.8
20260509225751 54 186 0.9 2.6 0.00 0.31 0.31 91 1007.7
20260509225238 54 161 0.9 2.6 0.00 0.31 0.31 91 1007.7
20260509224730 54 166 1.7 3.5 0.00 0.31 0.31 91 1007.6
20260509224242 54 214 1.7 3.5 0.00 0.31 0.31 90 1007.7
20260509223733 54 173 1.7 3.5 0.00 0.31 0.31 91 1007.7
20260509223245 54 133 1.7 3.5 0.00 0.31 0.31 90 1007.9
20260509222738 54 177 0.9 2.6 0.00 0.31 0.31 91 1007.9
20260509222228 54 158 0.9 2.6 0.00 0.31 0.31 91 1007.8
20260509221739 54 161 0.0 1.7 0.00 0.31 0.31 91 1008.0
20260509221252 54 158 0.9 1.7 0.00 0.31 0.31 92 1008.0
20260509220743 54 131 0.9 1.7 0.00 0.31 0.31 92 1007.9
20260509220235 54 194 0.9 2.6 0.00 0.31 0.31 92 1008.0
20260509215808 53 148 0.9 2.6 0.00 0.31 0.31 92 1007.9
20260509215239 53 216 0.9 2.6 0.00 0.31 0.31 93 1008.1
20260509214731 53 237 0.9 2.6 0.00 0.31 0.31 93 1008.1
20260509214304 53 221 0.9 2.6 0.00 0.31 0.31 93 1008.3
20260509213737 53 220 0.9 1.7 0.00 0.31 0.31 94 1008.3
20260509213250 53 165 0.0 2.6 0.00 0.31 0.31 94 1008.3
20260509212740 53 152 0.0 2.6 0.00 0.31 0.31 94 1008.3
20260509212233 53 168 0.9 2.6 0.00 0.31 0.31 94 1008.2
20260509211744 53 194 0.9 1.7 0.00 0.31 0.31 94 1008.2
20260509211235 53 132 0.9 2.6 0.00 0.31 0.31 94 1008.2
20260509210743 53 179 0.9 2.6 0.00 0.31 0.31 94 1008.3
20260509210236 53 125 1.7 2.6 0.00 0.31 0.31 95 1008.2
20260509205730 53 191 0.9 3.5 0.00 0.31 0.31 95 1008.3
20260509205242 52 208 0.9 3.5 0.00 0.31 0.31 95 1008.3
20260509204735 52 169 0.9 1.7 0.00 0.31 0.31 95 1008.4
20260509204246 52 161 0.9 1.7 0.00 0.31 0.31 95 1008.5
20260509203739 52 189 0.9 2.6 0.00 0.31 0.31 95 1008.6
20260509203231 52 160 0.9 2.6 0.00 0.31 0.31 95 1008.6
20260509202743 52 249 1.7 2.6 0.00 0.31 0.31 95 1008.6
20260509202236 52 189 0.9 2.6 0.00 0.31 0.31 96 1008.8
20260509201729 52 170 0.9 1.7 0.00 0.31 0.31 96 1008.7
20260509201242 52 204 0.9 3.5 0.00 0.31 0.31 96 1008.7
20260509200755 51 174 1.7 3.5 0.00 0.31 0.31 96 1008.9
20260509200246 51 191 0.0 0.0 0.00 0.31 0.31 96 1008.9
20260509195740 51 187 0.0 0.0 0.00 0.31 0.31 96 1008.9
20260509195253 51 191 0.0 0.0 0.00 0.31 0.31 96 1009.0
20260509194744 51 137 0.0 0.0 0.00 0.31 0.31 96 1009.1
20260509194237 50 131 0.0 0.9 0.00 0.31 0.31 96 1009.1
20260509193749 50 157 0.0 0.9 0.00 0.31 0.31 95 1009.2
20260509193242 50 146 0.0 0.9 0.00 0.31 0.31 95 1009.2
20260509192736 50 133 0.0 1.7 0.01 0.31 0.31 96 1009.3
20260509192250 50 205 0.0 2.6 0.01 0.31 0.31 95 1009.3
20260509191740 49 187 0.9 2.6 0.01 0.31 0.31 95 1009.4
20260509191233 49 137 0.9 2.6 0.01 0.31 0.31 95 1009.4
20260509190741 49 170 0.9 2.6 0.01 0.31 0.31 95 1009.5
20260509190232 49 191 0.9 1.7 0.01 0.31 0.31 95 1009.6
20260509185743 49 156 0.0 1.7 0.01 0.31 0.31 95 1009.6
20260509185234 49 165 0.9 1.7 0.01 0.31 0.31 95 1009.8
20260509184727 49 174 0.9 1.7 0.01 0.31 0.31 95 1009.9
20260509184258 49 181 0.9 2.6 0.01 0.31 0.31 95 1009.8
20260509183808 49 208 0.0 1.7 0.02 0.31 0.31 95 1009.9
20260509183241 49 153 0.9 2.6 0.02 0.31 0.31 95 1009.8
20260509182733 49 164 0.9 2.6 0.01 0.30 0.30 95 1009.8
20260509182239 48 185 0.9 1.7 0.01 0.30 0.30 95 1009.7
20260509181732 48 189 0.9 1.7 0.01 0.30 0.30 95 1009.7
20260509181244 48 178 0.9 1.7 0.01 0.30 0.30 95 1009.8
20260509180736 48 201 0.0 0.0 0.01 0.30 0.30 95 1010.0
20260509180228 48 201 0.0 0.9 0.01 0.30 0.30 95 1009.9
20260509175739 48 196 0.0 1.7 0.01 0.30 0.30 95 1009.9
20260509175250 48 196 0.9 1.7 0.02 0.30 0.30 95 1009.9
20260509174802 48 196 0.9 1.7 0.02 0.30 0.30 95 1009.9
20260509174232 48 188 0.9 1.7 0.02 0.30 0.30 95 1010.0
20260509173803 47 196 0.9 2.6 0.01 0.29 0.29 95 1010.1
20260509173236 47 178 0.9 1.7 0.01 0.29 0.29 95 1010.1
20260509172730 47 196 0.9 2.6 0.01 0.29 0.29 95 1010.1
20260509172306 47 170 1.7 2.6 0.02 0.29 0.29 95 1010.2
20260509171733 47 210 0.9 2.6 0.02 0.29 0.29 95 1010.2
20260509171306 47 183 0.9 2.6 0.02 0.29 0.29 95 1010.3
20260509170738 47 179 0.9 2.6 0.02 0.29 0.29 95 1010.5
20260509170231 47 182 1.7 2.6 0.02 0.29 0.29 95 1010.4
20260509165742 47 179 1.7 2.6 0.02 0.29 0.29 95 1010.4
20260509165235 47 120 1.7 3.5 0.01 0.28 0.28 95 1010.5
20260509164730 47 192 0.9 2.6 0.02 0.28 0.28 95 1010.5